sat.trackr.live / text

‹ back to catalog

STARLINK-31270

NORAD 59154 · 2024-044C

PAYLOAD ACTIVE UNKNOWN

§ Identity

Operator
Country
US
Launch date
2024-03-04
Launch site
AFETR
Launch vehicle
Mass (kg)
RCS (m²)

Purposes: comms

External: N2YO · Heavens-Above · Gunter

§ Orbital elements

Epoch: 2026-05-25T02:53:03.522624Z

Period
94.27 min
Inclination
43.0012°
Eccentricity
0.0001279
Mean motion
15.27580551 rev/d
Perigee alt
482.2 km
Apogee alt
483.9 km
Semi-major
6,861.2 km
B*
8.8389e-6
RAAN
35.4748°
Arg perigee
272.5609°
Mean anomaly
87.5096°
Rev number
12,528

§ Raw data

STARLINK-312701 59154U 24044C   26145.12017966 -.00000019  00000+0  88389-5 0  99992 59154  43.0012  35.4748 0001279 272.5609  87.5096 15.27580551125289

JSON: /api/v1/satellites/59154 · /tle

For live sub-satellite position, see the globe view (requires WebGL).

§ Visibility from observer

Set your observer location to see the next 7 days of passes ≥ 10°. The values pass through the URL so the page stays shareable.

No JS? Fill the form by hand. The geolocation button needs JavaScript.